Flag for Germany Weather past 2 weeks in Rathenow, Brandenburg, Germany

Now
64 °F

Overcast.


Feels Like: 64 °F
Forecast: 64 / 71 °F
Wind: 2 mph from Northeast

Location: Neuruppin

Current Time: Jul 24, 2014 at 2:59:26 AM

Latest Report: Jul 24, 2014 at 2:00 AM


Visibility: 6 mi

Pressure: 30.06 "Hg

Humidity: 74%

Dew point: 56 °F

Location of RathenowLocation

Historic Weather in Rathenow — Graph

°F

Rathenow temperature yesterday

Maximum temperature yesterday: 80 °F (at 3:00 PM)
Minimum temperature yesterday: 63 °F (at 6:00 AM)
Average temperature yesterday: 72 °F

Past Weeks' High & Low Weather Summary

 TemperatureHumidityPressure
High90 °F (Jul 20, 4:00 PM)97% (Jul 10, 3:00 AM)30.19 "Hg (Jul 10, 3:00 AM)
Low51 °F (Jul 13, 5:00 AM)34% (Jul 18, 3:00 PM)29.59 "Hg (Jul 9, 3:00 PM)
Average70 °F70%29.95 "Hg
* Reported Jul 9 2:00 AM — Jul 24 2:00 AM, Rathenow, Weather by CustomWeather, © 2014

Note: Actual official high and low records may vary slightly from our data, if they occured in-between our weather recording intervals... More about our weather records

Advertising

Rathenow weather history for previous 24 hours

 ConditionsComfort  
Time TempWeatherWind HumidityBarometerVisibility
2:00 AM
Jul 24
64 °FOvercast.2 mph74%30.06 "Hg6 mi
1:00 AM65 °FPassing clouds.3 mph72%30.06 "Hg6 mi
12:00 AM66 °FClear.5 mph71%30.07 "Hg6 mi
10:00 PM
Jul 23
70 °FClear.2 mph56%30.08 "Hg6 mi
9:00 PM72 °FSunny.5 mph46%30.06 "Hg6 mi
8:00 PM75 °FSunny.7 mph44%30.05 "Hg6 mi
7:00 PM76 °FSunny.7 mph38%30.05 "Hg6 mi
6:00 PM78 °FSunny.7 mph43%30.05 "Hg6 mi
5:00 PM79 °FPassing clouds.7 mph42%30.05 "Hg6 mi
4:00 PM78 °FScattered clouds.6 mph43%30.06 "Hg6 mi
3:00 PM80 °FScattered clouds.5 mph41%30.07 "Hg6 mi
6:00 AM63 °FOvercast.3 mph79%30.13 "Hg6 mi
5:00 AM64 °FClear.3 mph77%30.12 "Hg6 mi
4:00 AM64 °FClear.3 mph77%30.11 "Hg6 mi
3:00 AM65 °FClear.3 mph75%30.12 "Hg6 mi
2:00 AM66 °FClear.5 mph76%30.12 "Hg6 mi
Weather by CustomWeather, © 2014

See weather overviewHow to use our weather pages